Flag for Germany Weather past 2 weeks in Korschenbroich, North Rhine-Westphalia, Germany

Now
46 °F

Passing clouds.


Feels Like: 44 °F
Forecast: 36 / 48 °F
Wind: 6 mph from Northwest

Location: Monchengladbach Airport

Current Time: Mar 5, 2015 at 1:22:06 PM

Latest Report: Mar 5, 2015 at 12:50 PM


Visibility: 5 mi

Pressure: 30.66 "Hg

Humidity: 66%

Dew point: 36 °F

Location of KorschenbroichLocation

Historic Weather in Korschenbroich — Graph

°F

Korschenbroich temperature yesterday

Maximum temperature yesterday: 46 °F (at 1:20 PM)
Minimum temperature yesterday: 36 °F (at 7:50 AM)
Average temperature yesterday: 42 °F

Past Weeks' High & Low Weather Summary

 TemperatureHumidityPressure
High52 °F (Mar 1, 10:20 AM)100% (Feb 18, 12:20 PM)30.72 "Hg (Feb 18, 12:20 PM)
Low30 °F (Feb 28, 7:20 AM)50% (Feb 28, 4:50 PM)29.45 "Hg (Feb 21, 8:20 AM)
Average43 °F79%29.96 "Hg
* Reported Feb 18 12:20 PM — Mar 5 12:20 PM, Korschenbroich, Weather by CustomWeather, © 2015

Note: Actual official high and low records may vary slightly from our data, if they occured in-between our weather recording intervals... More about our weather records

Advertising

Korschenbroich weather history for previous 24 hours

 ConditionsComfort  
Time TempWeatherWind HumidityBarometerVisibility
12:20 PM
Thu, Mar 5
45 °FPassing clouds.5 mph71%30.66 "Hg5 mi
11:50 AM43 °FPassing clouds.6 mph81%30.66 "Hg5 mi
11:20 AM43 °FPassing clouds.7 mph87%30.66 "Hg4 mi
10:50 AM41 °FPassing clouds.5 mph93%30.66 "Hg4 mi
10:20 AM39 °FFog.5 mph100%30.66 "Hg3 mi
9:50 AM39 °FFog.6 mph100%30.66 "Hg2 mi
9:20 AM37 °FFog.5 mph100%30.66 "Hg1 mi
8:50 AM37 °FFog.5 mph100%30.66 "Hg1 mi
8:20 AM37 °FFog.6 mph100%30.63 "Hg1 mi
7:50 AM37 °FFog.9 mph100%30.63 "Hg1 mi
8:20 PM
Wed, Mar 4
41 °FPassing clouds.15 mph81%30.39 "HgN/A
7:50 PM41 °FScattered showers. Passing clouds.21 mph87%30.39 "HgN/A
7:20 PM39 °FScattered showers. Passing clouds.7 mph93%30.39 "HgN/A
6:50 PM41 °FSprinkles. Passing clouds.28 mph81%30.36 "Hg4 mi
6:20 PM43 °FScattered showers. Passing clouds.9 mph76%30.33 "HgN/A
5:50 PM43 °FScattered showers. Passing clouds.8 mph76%30.33 "HgN/A
5:20 PM43 °FScattered showers. Passing clouds.15 mph71%30.30 "HgN/A
4:50 PM43 °FScattered showers. Passing clouds.10 mph76%30.30 "HgN/A
4:20 PM43 °FScattered showers. Passing clouds.13 mph76%30.30 "HgN/A
3:50 PM43 °FScattered showers. Passing clouds.13 mph76%30.30 "HgN/A
3:20 PM45 °FScattered showers. Passing clouds.13 mph66%30.27 "HgN/A
2:50 PM46 °FScattered showers. Passing clouds.12 mph71%30.27 "HgN/A
2:20 PM45 °FScattered showers. Passing clouds.13 mph71%30.27 "HgN/A
1:50 PM45 °FPassing clouds.18 mph66%30.27 "HgN/A
1:20 PM46 °FPassing clouds.21 mph62%30.27 "HgN/A
Weather by CustomWeather, © 2015

See weather overviewHow to use our weather pages